SWA4359 KSMF-KPDX

Flight info

Callsign SWA4359
Flight time 1h 11m
Altitude 38000
Route RBL MACHU TMBRS4
Aircraft B737/M-SDE2E3FGHIRWXY/LB1

Departure

Time 2026-05-04 21:45
Airport Sacramento International Airport (KSMF)

Arrival

Time 2026-05-04 22:56
Airport Portland International Airport (KPDX)
Time Latitude Longitude Altitude Speed Heading
2026-05-04 21:22 38.69630 -121.59409 33 ft 0 kts 179°
2026-05-04 21:36 38.69643 -121.59409 32 ft 2 kts 179°
2026-05-04 21:37 38.69660 -121.59409 31 ft 2 kts 179°
2026-05-04 21:37 38.69677 -121.59409 33 ft 2 kts 167°
2026-05-04 21:37 38.69690 -121.59420 33 ft 2 kts 160°
2026-05-04 21:37 38.69707 -121.59419 33 ft 3 kts 232°
2026-05-04 21:38 38.69711 -121.59408 32 ft 0 kts 270°
2026-05-04 21:39 38.69711 -121.59412 32 ft 3 kts 265°
2026-05-04 21:40 38.69699 -121.59467 33 ft 11 kts 266°
2026-05-04 21:40 38.69699 -121.59598 34 ft 18 kts 270°
2026-05-04 21:40 38.69702 -121.59770 33 ft 19 kts 269°
2026-05-04 21:40 38.69745 -121.59864 32 ft 12 kts 359°
2026-05-04 21:41 38.69828 -121.59863 32 ft 12 kts
2026-05-04 21:41 38.69913 -121.59863 33 ft 13 kts
2026-05-04 21:41 38.70003 -121.59861 34 ft 13 kts
2026-05-04 21:41 38.70097 -121.59859 34 ft 14 kts
2026-05-04 21:42 38.70203 -121.59858 32 ft 16 kts
2026-05-04 21:42 38.70317 -121.59856 34 ft 16 kts
2026-05-04 21:42 38.70431 -121.59853 35 ft 17 kts
2026-05-04 21:42 38.70554 -121.59850 34 ft 19 kts
2026-05-04 21:43 38.70687 -121.59851 34 ft 18 kts 345°
2026-05-04 21:43 38.70720 -121.59990 34 ft 18 kts 270°
2026-05-04 21:43 38.70707 -121.60118 31 ft 9 kts 210°
2026-05-04 21:43 38.70645 -121.60112 35 ft 6 kts 181°
2026-05-04 21:44 38.70604 -121.60112 35 ft 12 kts 180°
2026-05-04 21:44 38.70281 -121.60117 39 ft 81 kts 181°
2026-05-04 21:44 38.69511 -121.60129 30 ft 138 kts 181°
2026-05-04 21:44 38.68438 -121.60151 269 ft 164 kts 180°
2026-05-04 21:45 38.67261 -121.60186 862 ft 172 kts 183°
2026-05-04 21:45 38.66147 -121.60593 1551 ft 172 kts 218°
2026-05-04 21:45 38.65537 -121.62012 1836 ft 204 kts 264°
2026-05-04 21:45 38.65949 -121.63854 2137 ft 235 kts 307°
2026-05-04 21:46 38.67311 -121.65123 2721 ft 253 kts 334°
2026-05-04 21:46 38.68965 -121.66040 3468 ft 265 kts 332°
2026-05-04 21:46 38.70568 -121.67207 4539 ft 266 kts 330°
2026-05-04 21:46 38.72183 -121.68373 5587 ft 267 kts 329°
2026-05-04 21:47 38.73766 -121.69627 6648 ft 268 kts 328°
2026-05-04 21:47 38.75338 -121.70978 7550 ft 276 kts 326°
2026-05-04 21:47 38.76929 -121.72425 8475 ft 284 kts 325°
2026-05-04 21:47 38.78541 -121.73946 9432 ft 291 kts 324°
2026-05-04 21:48 38.80178 -121.75531 10324 ft 299 kts 324°
2026-05-04 21:48 38.81878 -121.77200 10695 ft 326 kts 324°
2026-05-04 21:48 38.83740 -121.79048 11092 ft 347 kts 324°
2026-05-04 21:48 38.85658 -121.80972 12041 ft 349 kts 324°
2026-05-04 21:49 38.87568 -121.82899 13101 ft 350 kts 326°
2026-05-04 21:49 38.89490 -121.84839 14060 ft 354 kts 326°
2026-05-04 21:49 38.91443 -121.86814 14879 ft 360 kts 326°
2026-05-04 21:49 38.93435 -121.88828 15659 ft 368 kts 327°
2026-05-04 21:50 38.95465 -121.90885 16495 ft 374 kts 327°
2026-05-04 21:50 38.97523 -121.92973 17323 ft 380 kts 327°
2026-05-04 21:50 38.99613 -121.95094 18101 ft 387 kts 327°
2026-05-04 21:50 39.01742 -121.97255 18820 ft 392 kts 327°
2026-05-04 21:51 39.03894 -121.99442 19612 ft 395 kts 327°
2026-05-04 21:51 39.06155 -122.01438 20386 ft 393 kts 337°
2026-05-04 21:51 39.07794 -122.02420 20898 ft 391 kts 344°
2026-05-04 21:51 39.10390 -122.03404 21641 ft 388 kts 354°
2026-05-04 21:52 39.13069 -122.03944 22363 ft 391 kts 356°
2026-05-04 21:52 39.16663 -122.04621 23261 ft 397 kts 356°
2026-05-04 21:52 39.18526 -122.04976 23699 ft 400 kts 356°
2026-05-04 21:52 39.21297 -122.05510 24283 ft 404 kts 356°
2026-05-04 21:53 39.24046 -122.06051 24898 ft 406 kts 356°
2026-05-04 21:53 39.26848 -122.06610 25494 ft 409 kts 356°
2026-05-04 21:53 39.29673 -122.07177 26062 ft 413 kts 357°
2026-05-04 21:53 39.32521 -122.07752 26592 ft 416 kts 357°
2026-05-04 21:54 39.35395 -122.08333 27140 ft 419 kts 357°
2026-05-04 21:54 39.38286 -122.08919 27686 ft 422 kts 358°
2026-05-04 21:54 39.41201 -122.09511 28217 ft 425 kts 358°
2026-05-04 21:54 39.44133 -122.10107 28724 ft 428 kts 358°
2026-05-04 21:55 39.47092 -122.10708 29212 ft 431 kts 358°
2026-05-04 21:55 39.50064 -122.11312 29695 ft 434 kts 358°
2026-05-04 21:55 39.53058 -122.11922 30122 ft 437 kts 358°
2026-05-04 21:55 39.56071 -122.12536 30502 ft 439 kts 358°
2026-05-04 21:56 39.59102 -122.13154 30898 ft 441 kts 358°
2026-05-04 21:56 39.62135 -122.13775 31377 ft 440 kts 358°
2026-05-04 21:56 39.65151 -122.14395 31956 ft 436 kts 358°
2026-05-04 21:56 39.68136 -122.15009 32542 ft 433 kts 358°
2026-05-04 21:57 39.71106 -122.15618 33019 ft 432 kts 358°
2026-05-04 21:57 39.74074 -122.16226 33478 ft 431 kts 358°
2026-05-04 21:57 39.76992 -122.16823 33951 ft 429 kts 358°
2026-05-04 21:57 39.79938 -122.17427 34350 ft 428 kts 358°
2026-05-04 21:58 39.82888 -122.18031 34623 ft 431 kts 358°
2026-05-04 21:58 39.85868 -122.18639 34905 ft 434 kts 357°
2026-05-04 21:58 39.88858 -122.19252 35176 ft 436 kts 357°
2026-05-04 21:58 39.91867 -122.19872 35527 ft 437 kts 356°
2026-05-04 21:59 39.94871 -122.20498 35908 ft 437 kts 356°
2026-05-04 21:59 39.97874 -122.21122 36186 ft 438 kts 356°
2026-05-04 21:59 40.00882 -122.21739 36436 ft 439 kts 356°
2026-05-04 21:59 40.03906 -122.22359 36712 ft 439 kts 355°
2026-05-04 22:00 40.06927 -122.22983 37004 ft 440 kts 355°
2026-05-04 22:00 40.09953 -122.23609 37304 ft 440 kts 355°
2026-05-04 22:00 40.12978 -122.24270 37559 ft 442 kts 354°
2026-05-04 22:00 40.16008 -122.24971 37823 ft 442 kts 354°
2026-05-04 22:01 40.19040 -122.25689 38060 ft 444 kts 353°
2026-05-04 22:01 40.25162 -122.27142 38008 ft 447 kts 354°
2026-05-04 22:02 40.31234 -122.28577 37993 ft 439 kts 354°
2026-05-04 22:02 40.37200 -122.29978 37990 ft 438 kts 354°
2026-05-04 22:03 40.43197 -122.31385 37978 ft 437 kts 354°
2026-05-04 22:03 40.49179 -122.32790 37975 ft 436 kts 354°
2026-05-04 22:04 40.55157 -122.34198 37985 ft 435 kts 354°
2026-05-04 22:04 40.61118 -122.35606 37977 ft 434 kts 355°
2026-05-04 22:05 40.67018 -122.37000 37979 ft 433 kts 355°
2026-05-04 22:05 40.72946 -122.38405 37988 ft 432 kts 355°
2026-05-04 22:06 40.78863 -122.39810 38002 ft 432 kts 355°
2026-05-04 22:06 40.84771 -122.41212 37993 ft 431 kts 355°
2026-05-04 22:07 40.90694 -122.42621 37987 ft 432 kts 355°
2026-05-04 22:07 40.96608 -122.44032 38006 ft 431 kts 355°
2026-05-04 22:08 41.02510 -122.45444 38004 ft 431 kts 355°
2026-05-04 22:08 41.08380 -122.46849 38001 ft 431 kts 355°
2026-05-04 22:09 41.14279 -122.48265 37991 ft 430 kts 355°
2026-05-04 22:09 41.20168 -122.49680 37991 ft 430 kts 355°
2026-05-04 22:10 41.26057 -122.51099 38002 ft 429 kts 355°
2026-05-04 22:10 41.31934 -122.52519 37961 ft 428 kts 355°
2026-05-04 22:11 41.37790 -122.53933 37951 ft 427 kts 356°
2026-05-04 22:11 41.43598 -122.55339 37953 ft 427 kts 356°
2026-05-04 22:12 41.49449 -122.56755 37905 ft 426 kts 356°
2026-05-04 22:12 41.55278 -122.57850 37907 ft 418 kts
2026-05-04 22:13 41.61077 -122.58179 37895 ft 416 kts
2026-05-04 22:13 41.66872 -122.58474 37893 ft 417 kts
2026-05-04 22:14 41.72667 -122.58822 37884 ft 417 kts
2026-05-04 22:14 41.78425 -122.59198 37894 ft 416 kts
2026-05-04 22:15 41.84223 -122.59582 37896 ft 417 kts
2026-05-04 22:15 41.90021 -122.59956 37896 ft 417 kts
2026-05-04 22:16 41.95833 -122.60348 37896 ft 418 kts
2026-05-04 22:16 42.01634 -122.60735 37890 ft 417 kts
2026-05-04 22:17 42.07425 -122.61121 37883 ft 417 kts
2026-05-04 22:17 42.13217 -122.61505 37893 ft 417 kts
2026-05-04 22:18 42.18974 -122.61889 37899 ft 417 kts
2026-05-04 22:18 42.24765 -122.62275 37908 ft 416 kts
2026-05-04 22:19 42.30549 -122.62660 37891 ft 416 kts
2026-05-04 22:19 42.36310 -122.63044 37890 ft 415 kts
2026-05-04 22:20 42.42076 -122.63430 37893 ft 416 kts
2026-05-04 22:20 42.47837 -122.63816 37889 ft 417 kts
2026-05-04 22:21 42.53642 -122.64207 37889 ft 418 kts
2026-05-04 22:21 42.59455 -122.64596 37898 ft 417 kts
2026-05-04 22:22 42.65248 -122.64988 37893 ft 416 kts
2026-05-04 22:22 42.71027 -122.65379 37901 ft 415 kts
2026-05-04 22:23 42.76798 -122.65769 37912 ft 415 kts
2026-05-04 22:23 42.82556 -122.66160 37910 ft 414 kts
2026-05-04 22:24 42.88294 -122.66558 37908 ft 412 kts
2026-05-04 22:24 42.93980 -122.66944 37902 ft 412 kts
2026-05-04 22:25 42.99700 -122.67334 37951 ft 411 kts
2026-05-04 22:25 43.05410 -122.67721 37954 ft 410 kts
2026-05-04 22:26 43.11108 -122.68107 37943 ft 410 kts
2026-05-04 22:26 43.16799 -122.68510 37941 ft 409 kts
2026-05-04 22:27 43.22477 -122.68893 37946 ft 409 kts
2026-05-04 22:27 43.28148 -122.69279 37960 ft 408 kts
2026-05-04 22:28 43.33777 -122.69651 37947 ft 406 kts
2026-05-04 22:28 43.39419 -122.70046 37977 ft 406 kts
2026-05-04 22:29 43.45056 -122.70449 37969 ft 405 kts
2026-05-04 22:29 43.50694 -122.70836 37970 ft 405 kts
2026-05-04 22:30 43.56318 -122.71228 37983 ft 404 kts
2026-05-04 22:30 43.61928 -122.71617 37942 ft 402 kts
2026-05-04 22:31 43.67495 -122.72059 38008 ft 402 kts
2026-05-04 22:31 43.73070 -122.72409 38005 ft 401 kts
2026-05-04 22:32 43.78655 -122.72771 37980 ft 402 kts
2026-05-04 22:32 43.84248 -122.73163 38015 ft 403 kts
2026-05-04 22:33 43.89902 -122.73554 37358 ft 411 kts
2026-05-04 22:33 43.92719 -122.73751 36711 ft 410 kts
2026-05-04 22:33 43.95595 -122.73954 36060 ft 408 kts
2026-05-04 22:33 43.98398 -122.74152 35318 ft 409 kts
2026-05-04 22:34 44.01253 -122.74352 34551 ft 412 kts
2026-05-04 22:34 44.04129 -122.74553 33661 ft 416 kts
2026-05-04 22:34 44.07024 -122.74756 32867 ft 416 kts
2026-05-04 22:34 44.09903 -122.74962 32258 ft 412 kts
2026-05-04 22:35 44.12762 -122.75165 31660 ft 409 kts
2026-05-04 22:35 44.15596 -122.75321 31048 ft 404 kts
2026-05-04 22:35 44.18395 -122.75146 30476 ft 400 kts
2026-05-04 22:35 44.21163 -122.74846 29873 ft 397 kts
2026-05-04 22:36 44.23906 -122.74527 29219 ft 394 kts
2026-05-04 22:36 44.26625 -122.74219 28615 ft 389 kts
2026-05-04 22:36 44.29313 -122.73930 28019 ft 386 kts
2026-05-04 22:36 44.31975 -122.73654 27442 ft 382 kts
2026-05-04 22:37 44.34618 -122.73387 26855 ft 379 kts
2026-05-04 22:37 44.37235 -122.73126 26283 ft 376 kts
2026-05-04 22:37 44.39836 -122.72869 25723 ft 373 kts
2026-05-04 22:37 44.42385 -122.72617 25170 ft 371 kts
2026-05-04 22:38 44.44953 -122.72363 24617 ft 369 kts
2026-05-04 22:38 44.47515 -122.72109 24024 ft 369 kts
2026-05-04 22:38 44.50067 -122.71855 23434 ft 368 kts
2026-05-04 22:38 44.52626 -122.71600 22787 ft 366 kts
2026-05-04 22:39 44.55158 -122.71349 22182 ft 364 kts
2026-05-04 22:39 44.57642 -122.71104 22031 ft 350 kts
2026-05-04 22:39 44.60051 -122.70865 21532 ft 347 kts
2026-05-04 22:39 44.62447 -122.70624 21041 ft 344 kts
2026-05-04 22:40 44.64826 -122.70384 20540 ft 342 kts
2026-05-04 22:40 44.66395 -122.70226 20206 ft 341 kts
2026-05-04 22:40 44.68753 -122.69988 19713 ft 339 kts
2026-05-04 22:40 44.71102 -122.69752 19211 ft 338 kts
2026-05-04 22:41 44.73447 -122.69515 18697 ft 337 kts
2026-05-04 22:41 44.75787 -122.69279 18166 ft 337 kts
2026-05-04 22:41 44.78119 -122.69046 17612 ft 335 kts
2026-05-04 22:41 44.80447 -122.68810 17088 ft 333 kts
2026-05-04 22:42 44.82742 -122.68580 16607 ft 330 kts
2026-05-04 22:42 44.85025 -122.68351 16102 ft 327 kts
2026-05-04 22:42 44.87289 -122.68123 15608 ft 325 kts
2026-05-04 22:42 44.89540 -122.67895 15115 ft 324 kts
2026-05-04 22:43 44.91781 -122.67669 14631 ft 322 kts
2026-05-04 22:43 44.93979 -122.67448 14481 ft 310 kts
2026-05-04 22:43 44.96095 -122.67234 14309 ft 299 kts
2026-05-04 22:43 44.98112 -122.66700 14066 ft 291 kts 18°
2026-05-04 22:44 45.00021 -122.65804 13733 ft 288 kts 18°
2026-05-04 22:44 45.01913 -122.64934 13340 ft 285 kts 17°
2026-05-04 22:44 45.03801 -122.64088 12930 ft 284 kts 17°
2026-05-04 22:44 45.05680 -122.63259 12523 ft 283 kts 17°
2026-05-04 22:45 45.07554 -122.62440 12133 ft 281 kts 16°
2026-05-04 22:45 45.11213 -122.60659 11294 ft 281 kts 31°
2026-05-04 22:45 45.12623 -122.58731 10868 ft 285 kts 50°
2026-05-04 22:46 45.13820 -122.56488 10422 ft 286 kts 51°
2026-05-04 22:46 45.15005 -122.54246 10179 ft 279 kts 51°
2026-05-04 22:46 45.16156 -122.52067 9944 ft 273 kts 50°
2026-05-04 22:46 45.17300 -122.49914 9558 ft 273 kts 51°
2026-05-04 22:47 45.18444 -122.47769 9174 ft 271 kts 50°
2026-05-04 22:47 45.19581 -122.45645 8771 ft 269 kts 53°
2026-05-04 22:47 45.20706 -122.43537 8436 ft 267 kts 53°
2026-05-04 22:47 45.21825 -122.41425 8071 ft 267 kts 53°
2026-05-04 22:48 45.22976 -122.39368 7713 ft 266 kts 45°
2026-05-04 22:48 45.24592 -122.38108 7366 ft 269 kts 16°
2026-05-04 22:48 45.26409 -122.37501 7013 ft 268 kts 15°
2026-05-04 22:48 45.28221 -122.36913 6664 ft 267 kts 15°
2026-05-04 22:49 45.30039 -122.36330 6266 ft 268 kts 14°
2026-05-04 22:49 45.31790 -122.35584 5897 ft 265 kts 22°
2026-05-04 22:49 45.33594 -122.34988 5534 ft 267 kts 10°
2026-05-04 22:49 45.35422 -122.34537 5163 ft 266 kts 14°
2026-05-04 22:50 45.37242 -122.33980 4727 ft 270 kts 12°
2026-05-04 22:50 45.39090 -122.33564 4390 ft 268 kts 11°
2026-05-04 22:50 45.40864 -122.32826 4102 ft 262 kts 22°
2026-05-04 22:50 45.42582 -122.32089 3968 ft 256 kts 15°
2026-05-04 22:51 45.44295 -122.31546 3853 ft 246 kts 15°
2026-05-04 22:51 45.45964 -122.31203 3734 ft 241 kts 357°
2026-05-04 22:51 45.47110 -122.32699 3054 ft 256 kts 290°
2026-05-04 22:51 45.47705 -122.35138 2745 ft 258 kts 292°
2026-05-04 22:52 45.48668 -122.37229 2541 ft 251 kts 316°
2026-05-04 22:52 45.49752 -122.39144 2391 ft 247 kts 303°
2026-05-04 22:52 45.50600 -122.41228 2263 ft 237 kts 306°
2026-05-04 22:52 45.51564 -122.42993 2126 ft 220 kts 309°
2026-05-04 22:53 45.52410 -122.44712 2023 ft 203 kts 304°
2026-05-04 22:53 45.53131 -122.46341 1922 ft 187 kts 304°
2026-05-04 22:53 45.53811 -122.47886 1707 ft 179 kts 304°
2026-05-04 22:53 45.54439 -122.49357 1462 ft 168 kts 303°
2026-05-04 22:54 45.55013 -122.50740 1226 ft 155 kts 301°
2026-05-04 22:54 45.55521 -122.51997 1063 ft 140 kts 300°
2026-05-04 22:54 45.55985 -122.53161 863 ft 132 kts 299°
2026-05-04 22:54 45.56445 -122.54312 671 ft 134 kts 300°
2026-05-04 22:55 45.56905 -122.55468 515 ft 134 kts 298°
2026-05-04 22:55 45.57355 -122.56626 365 ft 133 kts 297°
2026-05-04 22:55 45.57813 -122.57794 164 ft 135 kts 299°
2026-05-04 22:55 45.58259 -122.58935 36 ft 127 kts 299°
2026-05-04 22:56 45.58628 -122.59873 37 ft 86 kts 298°
2026-05-04 22:56 45.58847 -122.60434 28 ft 48 kts 299°
2026-05-04 22:56 45.58986 -122.60790 33 ft 39 kts 299°
2026-05-04 22:56 45.59116 -122.61126 32 ft 37 kts 299°
2026-05-04 22:57 45.59269 -122.61344 28 ft 30 kts
2026-05-04 22:57 45.59348 -122.61254 30 ft 12 kts 77°
2026-05-04 22:57 45.59316 -122.61150 31 ft 12 kts 120°
2026-05-04 22:57 45.59277 -122.61052 33 ft 11 kts 120°
2026-05-04 22:58 45.59234 -122.60946 34 ft 14 kts 118°
2026-05-04 22:58 45.59184 -122.60815 34 ft 16 kts 118°
2026-05-04 22:58 45.59139 -122.60663 36 ft 18 kts 93°
2026-05-04 22:58 45.59139 -122.60475 34 ft 21 kts 90°
2026-05-04 22:59 45.59139 -122.60255 32 ft 23 kts 90°
2026-05-04 22:59 45.59140 -122.60029 29 ft 18 kts 90°
2026-05-04 22:59 45.59172 -122.59878 26 ft 17 kts 35°
2026-05-04 22:59 45.59271 -122.59800 27 ft 15 kts 31°
2026-05-04 23:00 45.59310 -122.59676 27 ft 14 kts 101°
2026-05-04 23:00 45.59269 -122.59548 29 ft 14 kts 115°
2026-05-04 23:00 45.59220 -122.59433 29 ft 13 kts 119°
2026-05-04 23:00 45.59177 -122.59320 31 ft 13 kts 119°
2026-05-04 23:01 45.59134 -122.59210 32 ft 13 kts 119°
2026-05-04 23:01 45.59092 -122.59102 32 ft 12 kts 119°
2026-05-04 23:01 45.59051 -122.58996 34 ft 12 kts 119°
2026-05-04 23:01 45.59007 -122.58895 34 ft 12 kts 124°
2026-05-04 23:02 45.58958 -122.58790 31 ft 14 kts 122°
2026-05-04 23:02 45.58904 -122.58710 31 ft 8 kts 184°
2026-05-04 23:02 45.58889 -122.58757 30 ft 1 kts 296°
2026-05-04 23:02 45.58890 -122.58757 30 ft 0 kts 296°